Location: McFarlands Corners
(41.4117°N, 81.3382°W)
Time: 05:23:09
(UTC+00:00)

Tiros 1 - Pass Details

Date: 24 February 2026
Orbit: 618 x 649 km, 48.4° (Epoch: 5 March)

Event Time Altitude Azimuth Distance (km) Brightness Sun altitude
Rises 15:20:50 0° 294° (WNW) 2,912 10.0 30.2°
Reaches altitude 10° 15:23:17 10° 302° (WNW) 1,999 9.3 30.5°
Maximum altitude 15:27:36 39° 12° (NNE) 932 8.0 31.0°
Drops below altitude 10° 15:31:54 10° 82° (E) 1,983 10.1 31.5°
Sets 15:34:19 0° 90° (E) 2,885 11.0 31.8°
